Date String (YYYY-MM-DD hh:mm:ss) UTC,Instrument flags,Ambient pressure (hPa),Sample flow (lpm),Bypass flow (lpm),Sample temperature (°C),Ambient temperature (°C),ASC tube jacket temperature (°C),LED temperature (°C),Box temperature (°C),Sample RH (%),Span deviation,Mass concentration (μg/m³),Mass concentration (μg/m³),Mass concentration (μg/m³)
DateTimeUTC,F1_M11,P_M11,Q1_M11,Q2_M11,T1_M11,T2_M11,T3_M11,T4_M11,T5_M11,U1_M11,ZSPAN_M11,X0_M11,X2_M11,X1_M11
2022-04-15 02:00:00,,0819.0,5.00,0.00,24.1,23.1,00.0,33.1,25.9,06.8,0000.0,0008.95,0003.45,0002.18
2022-04-15 02:01:00,,0819.0,4.99,0.00,24.1,23.1,00.0,33.1,25.7,06.8,0000.0,0009.00,0003.48,0002.18
2022-04-15 02:02:00,,0819.0,5.02,0.00,24.1,23.1,00.0,33.1,25.6,06.9,0000.0,0008.63,0003.48,0002.18
2022-04-15 02:03:00,,0819.0,5.00,0.00,24.1,23.0,00.0,33.1,25.6,06.9,0000.0,0008.03,0003.49,0002.17
2022-04-15 02:04:00,,0819.1,5.00,0.00,24.0,23.0,00.0,33.1,25.6,06.8,0000.0,0008.51,0003.49,0002.15
2022-04-15 02:05:00,,0819.0,4.99,0.00,24.0,23.0,00.0,33.1,25.7,06.9,0000.0,0008.85,0003.51,0002.14
2022-04-15 02:06:00,,0819.1,5.02,0.00,24.0,23.0,00.0,33.1,25.7,06.9,0000.0,0008.41,0003.48,0002.15
2022-04-15 02:07:00,,0819.1,4.99,0.00,24.0,23.0,00.0,33.1,25.7,06.9,0000.0,0008.45,0003.51,0002.16
2022-04-15 02:08:00,,0819.1,5.01,0.00,24.0,23.1,00.0,33.1,25.7,06.9,0000.0,0008.56,0003.51,0002.14
2022-04-15 02:09:00,,0819.1,5.00,0.00,24.0,23.0,00.0,33.1,25.7,06.9,0000.0,0008.54,0003.50,0002.14
2022-04-15 02:10:00,,0819.1,5.00,0.00,24.0,23.0,00.0,33.1,25.7,06.9,0000.0,0008.36,0003.50,0002.13
2022-04-15 02:11:00,,0819.2,4.99,0.00,24.0,23.0,00.0,33.1,25.6,06.9,0000.0,0008.31,0003.48,0002.11
2022-04-15 02:12:00,,0819.2,4.99,0.00,24.0,23.0,00.0,33.1,25.7,07.0,0000.0,0008.28,0003.45,0002.09
2022-04-15 02:13:00,,0819.2,5.00,0.00,24.0,23.0,00.0,33.1,25.7,07.0,0000.0,0008.19,0003.43,0002.09
2022-04-15 02:14:00,,0819.2,5.01,0.00,24.0,22.9,00.0,33.1,25.7,07.0,0000.0,0008.05,0003.38,0002.10
2022-04-15 02:15:00,,0819.2,4.99,0.00,24.0,22.9,00.0,33.1,25.7,07.0,0000.0,0007.42,0003.39,0002.11
2022-04-15 02:16:00,,0819.2,5.00,0.00,24.0,23.0,00.0,33.1,25.7,06.9,0000.0,0006.85,0003.36,0002.10
2022-04-15 02:17:00,,0819.2,5.00,0.00,24.0,23.0,00.0,33.1,25.7,06.7,0000.0,0006.51,0003.32,0002.10
2022-04-15 02:18:00,,0819.2,4.99,0.00,24.0,22.9,00.0,33.0,25.7,06.8,0000.0,0006.36,0003.31,0002.12
2022-04-15 02:19:00,,0819.2,5.00,0.00,24.0,22.9,00.0,33.0,25.7,06.9,0000.0,0007.01,0003.31,0002.14
2022-04-15 02:20:00,,0819.2,4.99,0.00,24.0,22.9,00.0,33.0,25.7,06.9,0000.0,0007.31,0003.32,0002.13
2022-04-15 02:21:00,,0819.2,5.01,0.00,24.0,22.9,00.0,33.0,25.7,06.8,0000.0,0007.52,0003.35,0002.11
2022-04-15 02:22:00,,0819.2,4.99,0.00,24.0,22.9,00.0,33.0,25.7,06.8,0000.0,0007.57,0003.37,0002.11
2022-04-15 02:23:00,,0819.2,5.00,0.00,24.0,22.9,00.0,33.0,25.7,06.7,0000.0,0007.64,0003.37,0002.11
2022-04-15 02:24:00,,0819.2,5.02,0.00,24.0,23.0,00.0,33.0,25.7,06.8,0000.0,0007.67,0003.34,0002.10
2022-04-15 02:25:00,,0819.2,5.00,0.00,24.0,23.0,00.0,33.0,25.7,06.8,0000.0,0007.68,0003.32,0002.09
2022-04-15 02:26:00,,0819.2,4.99,0.00,24.0,23.0,00.0,33.0,25.7,06.8,0000.0,0007.52,0003.27,0002.07
2022-04-15 02:27:00,,0819.2,4.99,0.00,24.0,23.0,00.0,33.0,25.7,06.8,0000.0,0007.57,0003.28,0002.08
2022-04-15 02:28:00,,0819.2,5.01,0.00,24.0,23.0,00.0,33.0,25.7,06.8,0000.0,0007.70,0003.30,0002.06
2022-04-15 02:29:00,,0819.2,5.00,0.00,24.0,23.0,00.0,33.0,25.7,06.9,0000.0,0007.66,0003.27,0002.02
2022-04-15 02:30:00,,0819.2,5.00,0.00,24.0,23.0,00.0,33.0,25.7,06.9,0000.0,0007.08,0003.26,0002.01
2022-04-15 02:31:00,,0819.3,5.01,0.00,24.0,23.0,00.0,33.0,25.7,06.8,0000.0,0006.98,0003.26,0002.02
2022-04-15 02:32:00,,0819.3,4.99,0.00,24.0,22.9,00.0,33.0,25.7,06.8,0000.0,0006.76,0003.24,0002.03
2022-04-15 02:33:00,,0819.2,5.00,0.00,24.0,23.0,00.0,33.0,25.8,06.7,0000.0,0006.63,0003.20,0002.02
2022-04-15 02:34:00,,0819.2,5.00,0.00,24.0,23.0,00.0,33.0,25.8,06.8,0000.0,0006.59,0003.20,0002.01
2022-04-15 02:35:00,,0819.3,4.99,0.00,24.0,23.0,00.0,33.0,25.7,06.8,0000.0,0006.71,0003.23,0002.01
2022-04-15 02:36:00,,0819.4,5.00,0.00,24.0,23.0,00.0,33.0,25.8,06.8,0000.0,0006.49,0003.24,0002.00
2022-04-15 02:37:00,,0819.4,5.00,0.00,24.0,23.0,00.0,33.0,25.7,06.8,0000.0,0006.50,0003.23,0001.99
2022-04-15 02:38:00,,0819.4,5.01,0.00,24.0,23.0,00.0,33.0,25.7,06.8,0000.0,0007.22,0003.26,0001.98
2022-04-15 02:39:00,,0819.4,5.00,0.00,24.0,23.0,00.0,33.0,25.8,06.8,0000.0,0007.17,0003.24,0001.95
2022-04-15 02:40:00,,0819.4,5.00,0.00,24.0,23.0,00.0,33.0,25.8,06.8,0000.0,0007.64,0003.24,0001.94
2022-04-15 02:41:00,,0819.4,5.00,0.00,24.0,23.0,00.0,33.0,25.7,06.8,0000.0,0007.76,0003.26,0001.94
2022-04-15 02:42:00,,0819.4,4.99,0.00,24.0,23.0,00.0,33.0,25.7,06.8,0000.0,0007.70,0003.25,0001.93
2022-04-15 02:43:00,,0819.4,5.00,0.00,24.0,23.0,00.0,33.0,25.7,06.8,0000.0,0007.56,0003.24,0001.92
2022-04-15 02:44:00,,0819.4,5.01,0.00,24.0,22.9,00.0,33.0,25.8,06.7,0000.0,0007.63,0003.24,0001.91
2022-04-15 02:45:00,,0819.4,5.00,0.00,24.1,23.0,00.0,33.0,25.9,06.7,0000.0,0008.20,0003.25,0001.91
2022-04-15 02:46:00,,0819.4,5.00,0.00,24.0,23.0,00.0,33.0,25.9,06.7,0000.0,0008.21,0003.26,0001.92
2022-04-15 02:47:00,,0819.4,5.00,0.00,24.0,23.0,00.0,33.0,25.9,06.7,0000.0,0008.28,0003.27,0001.92
2022-04-15 02:48:00,,0819.4,5.00,0.00,24.0,23.0,00.0,33.0,25.9,06.7,0000.0,0008.32,0003.30,0001.93
2022-04-15 02:49:00,,0819.4,5.01,0.00,24.0,23.0,00.0,33.0,25.9,06.7,0000.0,0008.09,0003.31,0001.93
2022-04-15 02:50:00,,0819.4,5.00,0.00,24.0,23.0,00.0,33.0,25.9,06.7,0000.0,0008.03,0003.31,0001.95
2022-04-15 02:51:00,,0819.3,5.00,0.00,24.0,23.0,00.0,33.0,25.8,06.7,0000.0,0007.63,0003.29,0001.97
2022-04-15 02:52:00,,0819.4,4.99,0.00,24.0,23.0,00.0,33.0,25.8,06.7,0000.0,0007.52,0003.28,0001.97
2022-04-15 02:53:00,,0819.4,5.00,0.00,24.1,23.0,00.0,33.0,25.9,06.6,0000.0,0007.54,0003.28,0001.98
2022-04-15 02:54:00,,0819.4,5.00,0.00,24.1,23.0,00.0,33.0,25.9,06.4,0000.0,0007.51,0003.26,0001.99
2022-04-15 02:55:00,,0819.4,5.00,0.00,24.0,23.0,00.0,33.0,25.9,06.4,0000.0,0007.42,0003.25,0002.00
2022-04-15 02:56:00,,0819.4,5.02,0.00,24.0,23.0,00.0,33.0,25.8,06.5,0000.0,0006.34,0003.22,0002.01
2022-04-15 02:57:00,,0819.4,5.00,0.00,24.0,23.0,00.0,33.0,25.7,06.5,0000.0,0006.37,0003.22,0002.01
2022-04-15 02:58:00,,0819.4,4.99,0.00,24.0,23.0,00.0,33.0,25.7,06.5,0000.0,0006.58,0003.22,0002.03
2022-04-15 02:59:00,,0819.4,4.99,0.00,24.0,23.0,00.0,33.0,25.7,06.4,0000.0,0007.60,0003.24,0002.05
